Tracking 35048 objects as of 19-Aug-2026
HD Live streaming from Space Station
objects crossing your sky now

LIZZIESAT-3 (LS-3)

Track LIZZIESAT-3 (LS-3) now!
10-day predictions
LIZZIESAT-3 (LS-3) is classified as:


NORAD ID: 63233
Int'l Code: 2025-052Z
Launch date: March 15, 2025
Source: United States (US)
Launch site: AIR FORCE WESTERN TEST RANGE (AFWTR)

Uplink (MHz):
Downlink (MHz): 2201.200
Beacon (MHz):
Mode: 400k BPSK
Call sign:
Status: Unknown

Your satellite tracking list
Your tracking list is empty




NASA's NSSDC Master Catalog

Two Line Element Set (TLE):
1 63233U 25052Z   26230.68280404  .00004118  00000-0  18201-3 0  9995
2 63233  97.3816 121.4130 0004462 316.6713  43.4172 15.22253486 79317
Source of the keplerian elements: AFSPC